TimeCDT,TemperatureF,Dew PointF,Humidity,Sea Level PressureIn,VisibilityMPH,Wind Direction,Wind SpeedMPH,Gust SpeedMPH,PrecipitationIn,Events,Conditions,WindDirDegrees,DateUTC
12:15 AM,73.4,69.8,88,30.08,10.0,Calm,Calm,-,N/A,,Scattered Clouds,0,2013-09-13 05:15:00
12:35 AM,73.4,68.0,83,30.07,10.0,Calm,Calm,-,N/A,,Scattered Clouds,0,2013-09-13 05:35:00
12:55 AM,73.4,68.0,83,30.07,10.0,Calm,Calm,-,N/A,,Mostly Cloudy,0,2013-09-13 05:55:00
1:15 AM,73.4,68.0,83,30.07,10.0,Calm,Calm,-,N/A,,Mostly Cloudy,0,2013-09-13 06:15:00
1:35 AM,73.4,68.0,83,30.07,10.0,Calm,Calm,-,N/A,,Mostly Cloudy,0,2013-09-13 06:35:00
1:55 AM,73.4,68.0,83,30.08,10.0,Calm,Calm,-,N/A,,Scattered Clouds,0,2013-09-13 06:55:00
2:15 AM,71.6,68.0,88,30.07,10.0,Calm,Calm,-,N/A,,Clear,0,2013-09-13 07:15:00
2:35 AM,71.6,68.0,88,30.08,10.0,NE,3.5,-,N/A,,Clear,40,2013-09-13 07:35:00
2:55 AM,73.4,64.4,73,30.08,10.0,NE,4.6,-,N/A,,Clear,50,2013-09-13 07:55:00
3:15 AM,71.6,62.6,73,30.08,10.0,ENE,5.8,-,N/A,,Scattered Clouds,60,2013-09-13 08:15:00
3:35 AM,71.6,60.8,69,30.08,10.0,NE,4.6,-,N/A,,Mostly Cloudy,50,2013-09-13 08:35:00
3:55 AM,71.6,60.8,69,30.08,10.0,NE,5.8,-,N/A,,Scattered Clouds,50,2013-09-13 08:55:00
4:15 AM,71.6,59.0,64,30.08,10.0,NE,5.8,-,N/A,,Clear,40,2013-09-13 09:15:00
4:35 AM,71.6,59.0,64,30.08,10.0,NE,5.8,-,N/A,,Clear,50,2013-09-13 09:35:00
4:55 AM,69.8,57.2,64,30.08,10.0,NE,5.8,-,N/A,,Clear,50,2013-09-13 09:55:00
5:15 AM,69.8,55.4,60,30.09,10.0,NE,4.6,-,N/A,,Clear,40,2013-09-13 10:15:00
5:35 AM,69.8,55.4,60,30.09,10.0,ENE,5.8,-,N/A,,Clear,60,2013-09-13 10:35:00
5:55 AM,68.0,55.4,64,30.09,10.0,ENE,4.6,-,N/A,,Clear,60,2013-09-13 10:55:00
6:15 AM,68.0,55.4,64,30.10,10.0,Calm,Calm,-,N/A,,Clear,0,2013-09-13 11:15:00
6:35 AM,68.0,55.4,64,30.10,10.0,NE,5.8,-,N/A,,Scattered Clouds,40,2013-09-13 11:35:00
6:55 AM,68.0,53.6,60,30.10,10.0,Calm,Calm,-,N/A,,Overcast,0,2013-09-13 11:55:00
7:15 AM,66.2,53.6,64,30.11,10.0,NE,3.5,-,N/A,,Scattered Clouds,50,2013-09-13 12:15:00
7:35 AM,66.2,53.6,64,30.11,10.0,NE,4.6,-,N/A,,Scattered Clouds,40,2013-09-13 12:35:00
7:55 AM,68.0,53.6,60,30.11,10.0,NE,4.6,-,N/A,,Clear,50,2013-09-13 12:55:00
8:15 AM,68.0,53.6,60,30.12,10.0,NE,5.8,-,N/A,,Clear,50,2013-09-13 13:15:00
8:35 AM,68.0,53.6,60,30.12,10.0,ENE,4.6,-,N/A,,Clear,60,2013-09-13 13:35:00
8:55 AM,69.8,51.8,53,30.12,10.0,NE,4.6,-,N/A,,Clear,40,2013-09-13 13:55:00
9:15 AM,71.6,51.8,50,30.12,10.0,NE,6.9,-,N/A,,Clear,50,2013-09-13 14:15:00
9:35 AM,73.4,51.8,47,30.12,10.0,ENE,5.8,-,N/A,,Clear,70,2013-09-13 14:35:00
9:55 AM,75.2,51.8,44,30.12,10.0,ENE,6.9,-,N/A,,Clear,70,2013-09-13 14:55:00
10:15 AM,77.0,50.0,39,30.12,10.0,East,8.1,-,N/A,,Clear,90,2013-09-13 15:15:00
10:35 AM,77.0,50.0,39,30.12,10.0,ENE,8.1,-,N/A,,Clear,60,2013-09-13 15:35:00
10:55 AM,78.8,50.0,36,30.12,10.0,ENE,9.2,-,N/A,,Clear,70,2013-09-13 15:55:00
11:15 AM,78.8,50.0,36,30.12,10.0,ENE,6.9,-,N/A,,Clear,70,2013-09-13 16:15:00
11:35 AM,80.6,51.8,37,30.11,10.0,ENE,4.6,-,N/A,,Clear,70,2013-09-13 16:35:00
11:55 AM,78.8,50.0,36,30.11,10.0,NE,9.2,-,N/A,,Clear,50,2013-09-13 16:55:00
12:15 PM,80.6,51.8,37,30.11,10.0,NE,8.1,-,N/A,,Clear,50,2013-09-13 17:15:00
12:35 PM,80.6,50.0,34,30.10,10.0,East,5.8,-,N/A,,Clear,80,2013-09-13 17:35:00
12:55 PM,80.6,50.0,34,30.10,10.0,NE,5.8,-,N/A,,Clear,50,2013-09-13 17:55:00
1:15 PM,80.6,51.8,37,30.09,10.0,North,5.8,-,N/A,,Clear,10,2013-09-13 18:15:00
1:35 PM,82.4,51.8,35,30.08,10.0,NE,4.6,-,N/A,,Clear,40,2013-09-13 18:35:00
1:55 PM,82.4,51.8,35,30.07,10.0,North,8.1,-,N/A,,Clear,10,2013-09-13 18:55:00
2:15 PM,82.4,51.8,35,30.06,10.0,NE,6.9,-,N/A,,Clear,50,2013-09-13 19:15:00
2:35 PM,84.2,50.0,30,30.05,10.0,NE,6.9,-,N/A,,Clear,40,2013-09-13 19:35:00
2:55 PM,84.2,50.0,30,30.05,10.0,NNE,6.9,-,N/A,,Clear,30,2013-09-13 19:55:00
3:15 PM,84.2,50.0,30,30.05,10.0,NE,9.2,-,N/A,,Clear,50,2013-09-13 20:15:00
3:35 PM,84.2,50.0,30,30.04,10.0,North,6.9,-,N/A,,Clear,10,2013-09-13 20:35:00
3:55 PM,82.4,50.0,32,30.03,10.0,NNE,3.5,-,N/A,,Clear,30,2013-09-13 20:55:00
4:15 PM,82.4,46.4,28,30.03,10.0,NNE,5.8,-,N/A,,Clear,20,2013-09-13 21:15:00
4:35 PM,82.4,50.0,32,30.02,10.0,NE,9.2,-,N/A,,Clear,40,2013-09-13 21:35:00
4:55 PM,82.4,48.2,30,30.02,10.0,NE,6.9,-,N/A,,Clear,40,2013-09-13 21:55:00
5:15 PM,82.4,48.2,30,30.02,10.0,NE,8.1,-,N/A,,Clear,40,2013-09-13 22:15:00
5:35 PM,80.6,48.2,32,30.02,10.0,NE,5.8,-,N/A,,Clear,50,2013-09-13 22:35:00
5:55 PM,80.6,50.0,34,30.02,10.0,NE,6.9,-,N/A,,Clear,40,2013-09-13 22:55:00
6:15 PM,78.8,48.2,34,30.02,10.0,NE,5.8,-,N/A,,Clear,40,2013-09-13 23:15:00
6:35 PM,78.8,50.0,36,30.03,10.0,NNE,5.8,-,N/A,,Clear,30,2013-09-13 23:35:00
6:55 PM,77.0,51.8,41,30.03,10.0,NE,3.5,-,N/A,,Clear,40,2013-09-13 23:55:00
7:15 PM,73.4,53.6,50,30.03,10.0,Calm,Calm,-,N/A,,Clear,0,2013-09-14 00:15:00
7:35 PM,73.4,51.8,47,30.03,10.0,NNE,4.6,-,N/A,,Clear,30,2013-09-14 00:35:00
7:55 PM,71.6,51.8,50,30.03,10.0,NE,4.6,-,N/A,,Clear,40,2013-09-14 00:55:00
8:15 PM,69.8,53.6,56,30.04,10.0,Calm,Calm,-,N/A,,Clear,0,2013-09-14 01:15:00
8:35 PM,69.8,53.6,56,30.05,10.0,Calm,Calm,-,N/A,,Clear,0,2013-09-14 01:35:00
8:55 PM,68.0,53.6,60,30.05,10.0,Calm,Calm,-,N/A,,Clear,0,2013-09-14 01:55:00
9:15 PM,64.4,53.6,68,30.05,10.0,Calm,Calm,-,N/A,,Clear,0,2013-09-14 02:15:00
9:35 PM,66.2,51.8,60,30.06,10.0,Calm,Calm,-,N/A,,Clear,0,2013-09-14 02:35:00
9:55 PM,64.4,51.8,64,30.06,10.0,NE,3.5,-,N/A,,Clear,40,2013-09-14 02:55:00
10:15 PM,64.4,51.8,64,30.06,10.0,Calm,Calm,-,N/A,,Clear,0,2013-09-14 03:15:00
10:35 PM,62.6,51.8,68,30.05,10.0,Calm,Calm,-,N/A,,Clear,0,2013-09-14 03:35:00
10:55 PM,62.6,51.8,68,30.05,10.0,Calm,Calm,-,N/A,,Clear,0,2013-09-14 03:55:00
11:15 PM,60.8,51.8,72,30.05,10.0,Calm,Calm,-,N/A,,Clear,0,2013-09-14 04:15:00
11:35 PM,60.8,51.8,72,30.05,10.0,Calm,Calm,-,N/A,,Clear,0,2013-09-14 04:35:00
11:55 PM,60.8,51.8,72,30.05,10.0,Calm,Calm,-,N/A,,Clear,0,2013-09-14 04:55:00